Topeka, KS

3:48 PM CST on January 16, 2018 (GMT -0600)
Billard Municipal

Weather History for KTOP - August, 2014

Change the Weather History Date:

Monday, August 4, 2014

  Actual Average Record
Temperature  
Mean Temperature 86 °F 79 °F  
Max Temperature 99 °F 90 °F 107 °F (1930)
Min Temperature 73 °F 68 °F 50 °F (1894)
Degree Days  
Heating Degree Days 0 0  
Month to date heating degree days 0 0  
Since 1 June heating degree days 0 8  
Since 1 July heating degree days 0 0  
Cooling Degree Days 21 14  
Month to date cooling degree days 63 56  
Year to date cooling degree days 986 898  
Since 1 June cooling degree days 769 772  
Growing Degree Days 37 (Base 50)    
Moisture  
Dew Point 64 °F    
Average Humidity 58    
Maximum Humidity 87    
Minimum Humidity 29    
Precipitation  
Precipitation 0.00 in 0.13 in 4.07 in (1906)
Month to date precipitation 0.06 0.53  
Year to date precipitation 14.71 22.86  
Snow  
Snow 0.00 in 0.00 in T in (1931)
Month to date snowfall 0.0 0.0  
Year to date snowfall 23.1 11.3  
Since 1 July snowfall 0.0 0.0  
Snow Depth 0.00 in    
Sea Level Pressure  
Sea Level Pressure 29.99 in    
Wind  
Wind Speed 7 mph (SSW)    
Max Wind Speed 17 mph    
Max Gust Speed 23 mph    
Visibility 10 miles    
Events      
T = Trace of Precipitation, MM = Missing Value Source: NWS Daily Summary

Daily Weather History Graph

Daily Weather History Graph

Search for Another Location

Airport or City:

Trip Planner

Search our weather history database for the weather conditions in past years. The results will help you decide how hot, cold, wet, or windy it might be!

Date:

Astronomy

Aug. 04, 2014 Rise Set
Actual Time 6:25 AM CDT 8:30 PM CDT
Civil Twilight 5:56 AM CDT 9:00 PM CDT
Nautical Twilight 5:20 AM CDT 9:36 PM CDT
Astronomical Twilight 4:40 AM CDT 10:15 PM CDT
Moon 2:44 PM CDT (8/4) 12:32 AM CDT (8/4)
Length of Visible Light 15h 03m
Length of Day
14h 04m
First Quarter, 57% of the Moon is Illuminated
Aug 4
First Quarter
Aug 10
Full
Aug 17
Last Quarter
Aug 25
New
Sep 2
First Quarter

Hourly Weather History & Observations

Time (CDT) Temp. Heat Index Dew Point Humidity Pressure Visibility Wind Dir Wind Speed Gust Speed Precip Events Conditions
12:53 AM 78.1 °F - 64.9 °F 64% 30.01 in 10.0 mi South 5.8 mph - N/A   Clear
1:53 AM 75.9 °F - 66.0 °F 71% 30.01 in 10.0 mi South 4.6 mph - N/A   Clear
2:53 AM 75.0 °F - 66.0 °F 73% 30.00 in 10.0 mi South 4.6 mph - N/A   Scattered Clouds
3:53 AM 75.0 °F - 66.0 °F 73% 30.00 in 10.0 mi South 4.6 mph - N/A   Clear
4:53 AM 75.0 °F - 64.9 °F 71% 30.00 in 10.0 mi South 5.8 mph - N/A   Partly Cloudy
5:53 AM 75.9 °F - 64.0 °F 67% 30.00 in 10.0 mi SSW 5.8 mph - N/A   Mostly Cloudy
6:53 AM 75.2 °F - 64.4 °F 69% 30.06 in 10.0 mi SSW 5.8 mph - N/A   Mostly Cloudy
7:53 AM 77.0 °F - 64.9 °F 66% 30.04 in 10.0 mi SSW 4.6 mph - N/A   Mostly Cloudy
8:53 AM 78.1 °F - 64.9 °F 64% 30.04 in 10.0 mi SW 6.9 mph - N/A   Overcast
9:53 AM 84.0 °F 86.3 °F 66.0 °F 55% 30.04 in 10.0 mi SW 9.2 mph - N/A   Partly Cloudy
10:53 AM 86.0 °F 87.3 °F 64.0 °F 48% 30.03 in 10.0 mi SW 11.5 mph - N/A   Clear
11:53 AM 90.0 °F 90.3 °F 62.1 °F 39% 30.01 in 10.0 mi SSW 11.5 mph 23.0 mph N/A   Partly Cloudy
12:53 PM 91.9 °F 92.5 °F 62.1 °F 37% 30.00 in 10.0 mi WSW 11.5 mph 18.4 mph N/A   Scattered Clouds
1:53 PM 93.9 °F 94.8 °F 62.1 °F 35% 29.98 in 10.0 mi SSW 17.3 mph 23.0 mph N/A   Mostly Cloudy
2:53 PM 95.0 °F 95.6 °F 62.1 °F 33% 29.96 in 10.0 mi SW 13.8 mph - N/A   Clear
3:53 PM 96.1 °F 96.4 °F 61.0 °F 31% 29.94 in 10.0 mi WSW 10.4 mph - N/A   Clear
4:53 PM 98.1 °F 98.1 °F 60.1 °F 28% 29.93 in 10.0 mi Variable 5.8 mph - N/A   Clear
5:53 PM 97.0 °F 96.9 °F 60.1 °F 29% 29.92 in 10.0 mi Variable 5.8 mph - N/A   Clear
6:53 PM 97.0 °F 97.4 °F 61.0 °F 30% 29.92 in 10.0 mi NW 8.1 mph - N/A   Clear
7:53 PM 91.9 °F 94.1 °F 64.9 °F 41% 29.92 in 10.0 mi Calm Calm - N/A   Clear
8:53 PM 82.9 °F 86.5 °F 69.1 °F 63% 29.94 in 10.0 mi Calm Calm - N/A   Clear
9:53 PM 80.1 °F 83.2 °F 70.0 °F 71% 29.96 in 10.0 mi NE 5.8 mph - N/A   Clear
10:53 PM 80.1 °F 83.6 °F 71.1 °F 74% 29.97 in 10.0 mi NNE 4.6 mph - N/A   Clear
11:53 PM 75.9 °F - 71.1 °F 85% 29.97 in 10.0 mi Calm Calm - N/A   Clear